CAPE
42 7 3 29 15 17 84 0 0 0 0 0 0 0 13 66 163 208 171 219 271 212 259 381 614 943 1085 880 946 1187 940 774 807 784 943 815 657 637 644 697 719 734
3 87 347 32 235 236 0 0 0 0 0 3 1 0 4 156 187 184 118 285 432 324 189 275 374 460 610 714 832 875 613 597 628 885 844 818 796 788 791 840 889 791
6 229 212 16 26 26 0 0 36 5 4 0 0 3 68 298 52 85 116 122 121 135 196 216 228 370 467 486 675 755 629 570 648 675 853 950 840 844 936 981 882 798
612 212 35 0 0 0 0 30 78 1 0 0 0 10 158 300 164 142 97 892 147 180 230 281 350 426 417 461 592 641 656 712 681 778 902 841 845 1012 961 815 747 687
768 542 0 0 0 0 2 10 15 1 0 0 0 18 224 132 84 22 39 76 198 174 183 290 232 290 461 534 562 533 656 707 683 797 813 759 748 865 922 872 758 644
731 528 1 0 0 2 1 0 0 0 0 0 0 89 72 89 67 50 20 3 22 96 110 76 111 162 262 291 328 301 387 558 554 729 836 784 764 818 842 894 679 419
654 574 218 6 0 0 0 0 0 20 0 0 0 0 0 12 4 0 0 0 1 52 5 18 97 244 472 554 554 546 556 578 603 689 736 732 712 534 485 652 434 309
736 640 479 18 1 0 0 0 0 22 15 0 0 0 0 1 0 0 0 3 32 18 33 32 75 185 253 512 652 637 670 739 756 763 701 677 568 541 448 337 304 282
737 639 497 336 17 3 16 10 19 9 10 9 0 0 0 0 0 0 2 24 29 36 32 44 84 145 195 511 650 533 493 546 619 641 672 697 641 518 416 348 250 62
662 607 518 429 27 31 22 36 72 66 66 2 0 0 0 1 26 19 25 28 23 34 25 27 63 127 238 532 672 681 700 709 620 497 453 401 411 430 371 227 171 192
652 635 542 454 415 99 124 148 158 134 60 29 0 0 0 0 8 57 38 26 46 28 20 38 85 150 250 572 712 734 773 722 648 595 466 370 240 90 163 79 172 209
714 670 570 510 494 488 165 166 135 43 0 0 0 0 0 0 0 0 12 0 2 15 15 36 68 112 199 272 528 753 797 791 744 583 510 353 150 16 16 11 26 104
715 634 586 607 620 562 452 50 23 1 0 0 0 0 0 0 0 0 4 0 8 23 17 29 18 19 83 174 317 678 855 835 703 614 547 333 124 80 78 92 117 168
745 701 698 729 676 592 201 1 0 0 0 0 0 0 0 0 0 0 0 11 0 0 0 0 0 0 0 3 161 608 837 835 781 677 428 255 131 88 104 162 208 214
838 817 798 781 614 540 6 0 0 0 0 0 0 0 0 0 0 0 0 0 0 0 0 0 0 0 0 2 233 615 830 851 765 592 383 296 234 195 210 167 6 2
872 841 760 538 115 52 18 3 0 0 0 0 0 0 6 39 5 0 0 0 0 0 0 0 11 44 281 306 537 651 722 685 570 445 414 397 374 404 317 89 0 0
768 728 612 460 534 539 10 0 0 0 0 0 0 1 7 21 51 1 4 0 0 0 0 0 0 5 50 134 519 695 537 114 162 399 468 560 653 626 53 36 15 0
819 670 432 572 609 591 15 0 0 0 0 0 0 4 5 12 20 8 0 0 0 0 0 0 0 6 3 2 49 375 558 565 502 507 558 612 676 495 276 8 20 237
1008 852 717 677 668 621 12 0 0 0 2 5 12 14 13 53 198 30 5 0 5 20 16 10 16 19 3 0 0 0 5 418 431 404 383 385 355 310 263 236 256 314
1123 1052 947 871 802 684 529 10 11 19 21 23 28 32 146 218 220 220 219 199 129 118 43 34 23 29 14 0 0 0 0 3 17 19 132 103 296 287 276 316 347 349
939 954 1042 1062 883 671 496 384 288 27 36 40 134 219 237 237 245 279 262 236 232 147 46 51 40 83 1 0 0 0 0 0 0 12 40 61 290 358 375 356 356 458
560 525 829 867 694 479 331 113 33 42 57 178 249 278 281 304 335 350 363 329 230 151 194 194 34 38 0 0 0 0 0 0 0 0 9 72 97 189 186 388 628 703
561 481 377 340 153 104 101 90 128 276 261 282 362 400 399 422 438 452 474 430 285 186 171 62 51 167 109 0 0 0 0 0 0 0 6 30 98 295 591 670 586 558
516 411 269 314 326 326 208 308 330 404 441 452 505 535 548 559 554 565 577 578 489 315 175 176 188 86 0 0 0 0 0 40 0 2 56 410 541 439 426 404 286 586
595 567 491 467 470 469 465 487 508 499 491 532 598 648 655 679 634 626 662 508 159 266 256 288 238 244 0 0 0 0 86 179 8 162 319 314 331 206 46 0 0 8
817 761 701 640 618 612 481 490 527 538 443 317 562 717 757 722 674 648 670 452 0 8 199 254 172 187 222 0 0 197 260 91 16 255 159 157 188 155 0 0 0 0
Wind_Speed
nan nan nan nan nan nan nan nan nan nan nan nan nan nan nan nan 30 29 29 29 30 31 32 32 33 34 35 36 36 38 38 39 37 37 38 40 40 41 41 42 44 45
nan nan 27 nan 30 30 nan nan nan nan nan nan nan nan nan 32 30 30 29 30 30 31 32 33 34 35 36 37 38 39 38 39 37 38 39 39 39 41 41 42 44 45
nan 26 28 nan nan nan nan nan nan nan nan nan nan nan nan 32 nan nan 30 31 31 31 31 32 33 35 37 38 39 39 39 39 38 38 39 39 40 42 42 42 44 46
26 27 nan nan nan nan nan nan nan nan nan nan nan nan 31 31 31 30 nan 31 32 32 32 32 33 34 37 38 39 39 39 39 39 40 40 39 40 42 42 44 45 45
28 27 nan nan nan nan nan nan nan nan nan nan nan nan 30 31 nan nan nan nan 33 33 33 33 34 36 38 39 40 40 40 40 39 40 41 40 40 42 41 44 45 45
28 28 nan nan nan nan nan nan nan nan nan nan nan nan nan nan nan nan nan nan nan nan 34 nan 36 37 39 39 40 40 40 39 38 40 40 40 39 40 41 43 44 43
30 29 29 nan nan nan nan nan nan nan nan nan nan nan nan nan nan nan nan nan nan nan nan nan nan 36 36 37 38 39 39 39 39 41 41 40 41 40 42 44 45 45
31 30 30 nan nan nan nan nan nan nan nan nan nan nan nan nan nan nan nan nan nan nan nan nan nan 38 37 38 39 40 40 41 41 41 41 41 42 41 42 43 44 44
32 31 31 30 nan nan nan nan nan nan nan nan nan nan nan nan nan nan nan nan nan nan nan nan nan 40 40 41 41 42 41 41 41 42 43 43 42 42 42 43 43 nan
34 32 32 31 nan nan nan nan nan nan nan nan nan nan nan nan nan nan nan nan nan nan nan nan nan 40 41 42 42 42 42 42 42 43 43 43 43 42 42 43 43 42
34 33 32 30 28 nan 31 34 33 32 nan nan nan nan nan nan nan nan nan nan nan nan nan nan nan 41 42 42 43 43 43 43 43 43 43 43 42 nan 41 nan 42 42
33 32 32 31 29 29 32 34 34 nan nan nan nan nan nan nan nan nan nan nan nan nan nan nan nan 42 43 43 43 43 43 43 43 42 41 41 41 nan nan nan nan 40
32 31 31 30 29 31 34 nan nan nan nan nan nan nan nan nan nan nan nan nan nan nan nan nan nan nan nan 42 41 42 43 43 42 41 39 39 39 nan nan nan 39 39
30 30 29 29 29 32 34 nan nan nan nan nan nan nan nan nan nan nan nan nan nan nan nan nan nan nan nan nan 41 42 43 42 42 40 39 38 37 nan 36 36 37 38
29 28 28 29 30 32 nan nan nan nan nan nan nan nan nan nan nan nan nan nan nan nan nan nan nan nan nan nan 42 41 41 41 40 40 39 37 36 35 35 35 nan nan
29 29 30 30 30 nan nan nan nan nan nan nan nan nan nan nan nan nan nan nan nan nan nan nan nan nan 41 43 43 42 41 40 40 40 39 38 36 33 32 nan nan nan
30 29 30 31 31 32 nan nan nan nan nan nan nan nan nan nan nan nan nan nan nan nan nan nan nan nan nan 43 43 43 41 40 40 40 39 38 36 33 nan nan nan nan
30 30 30 30 32 33 nan nan nan nan nan nan nan nan nan nan nan nan nan nan nan nan nan nan nan nan nan nan nan 39 39 40 40 39 38 37 35 32 31 nan nan 33
29 30 30 31 32 34 nan nan nan nan nan nan nan nan nan nan 42 nan nan nan nan nan nan nan nan nan nan nan nan nan nan 40 39 37 36 36 35 32 31 32 34 34
29 30 30 31 34 35 37 nan nan nan nan nan nan nan 43 44 46 47 46 46 46 46 nan nan nan nan nan nan nan nan nan nan nan nan 35 35 35 33 33 34 36 37
29 29 31 32 34 36 38 38 39 nan nan nan 44 44 44 45 46 45 44 44 42 40 nan nan nan nan nan nan nan nan nan nan nan nan nan nan 35 35 35 36 37 37
28 29 32 34 35 37 38 39 nan nan nan 42 41 40 40 43 45 46 46 46 44 41 44 48 nan nan nan nan nan nan nan nan nan nan nan nan nan 35 35 37 37 37
28 30 32 34 36 38 38 nan 40 39 39 40 39 39 41 45 48 48 47 47 44 41 43 nan nan 40 39 nan nan nan nan nan nan nan nan nan nan 35 35 36 37 36
29 32 34 36 38 38 39 39 41 41 39 39 41 42 45 48 49 48 47 47 43 40 42 42 37 nan nan nan nan nan nan nan nan nan nan 35 33 35 35 35 34 31
31 33 35 38 39 39 40 42 46 45 42 42 43 45 46 47 47 48 46 39 34 33 38 42 37 32 nan nan nan nan nan 37 nan 38 36 33 34 34 nan nan nan nan
33 35 37 38 38 39 42 45 45 45 42 42 43 45 45 48 51 54 53 48 nan nan 41 41 37 35 37 nan nan 38 42 nan nan 38 35 35 37 36 nan nan nan nan
Wind_Direction
nan nan nan nan nan nan nan nan nan nan nan nan nan nan nan nan 316 315 314 312 313 314 315 316 316 318 320 320 319 317 318 317 318 319 320 320 322 322 322 322 322 323
nan nan 305 nan 304 303 nan nan nan nan nan nan nan nan nan 315 317 315 313 314 315 315 315 316 317 319 321 320 319 319 319 318 320 319 321 323 324 322 323 323 323 323
nan 308 306 nan nan nan nan nan nan nan nan nan nan nan nan 315 nan nan 314 315 316 315 315 316 317 319 320 320 319 320 321 321 322 323 323 324 323 322 324 323 323 323
311 309 nan nan nan nan nan nan nan nan nan nan nan nan 316 317 315 316 nan 317 315 313 314 315 317 318 319 320 320 322 323 324 325 324 323 323 323 324 325 323 323 323
312 308 nan nan nan nan nan nan nan nan nan nan nan nan 316 316 nan nan nan nan 313 313 313 315 317 319 319 320 321 322 323 326 325 324 323 324 325 324 325 324 323 324
308 308 nan nan nan nan nan nan nan nan nan nan nan nan nan nan nan nan nan nan nan nan 314 nan 318 319 319 320 320 322 324 326 326 324 324 324 325 323 323 323 324 324
308 308 311 nan nan nan nan nan nan nan nan nan nan nan nan nan nan nan nan nan nan nan nan nan nan 318 318 320 322 324 325 326 325 324 325 325 324 325 324 325 325 325
309 308 307 nan nan nan nan nan nan nan nan nan nan nan nan nan nan nan nan nan nan nan nan nan nan 319 322 323 324 325 325 325 326 325 325 325 325 326 326 325 325 325
307 306 303 306 nan nan nan nan nan nan nan nan nan nan nan nan nan nan nan nan nan nan nan nan nan 322 324 325 325 325 326 326 326 325 324 326 327 328 328 325 324 nan
306 304 307 310 nan nan nan nan nan nan nan nan nan nan nan nan nan nan nan nan nan nan nan nan nan 324 325 325 327 328 328 328 326 325 325 326 327 328 327 325 326 326
306 308 311 311 309 nan 311 311 313 317 nan nan nan nan nan nan nan nan nan nan nan nan nan nan nan 326 327 328 328 328 328 327 326 325 325 326 327 nan 326 nan 326 326
310 310 312 311 308 309 313 312 314 nan nan nan nan nan nan nan nan nan nan nan nan nan nan nan nan 327 329 330 330 328 326 325 325 325 325 324 324 nan nan nan nan 327
311 313 311 307 307 311 309 nan nan nan nan nan nan nan nan nan nan nan nan nan nan nan nan nan nan nan nan 329 327 326 326 324 324 324 323 322 322 nan nan nan 327 326
310 311 308 305 305 306 305 nan nan nan nan nan nan nan nan nan nan nan nan nan nan nan nan nan nan nan nan nan 326 326 325 324 324 323 322 320 320 nan 324 326 327 326
305 304 303 304 306 304 nan nan nan nan nan nan nan nan nan nan nan nan nan nan nan nan nan nan nan nan nan nan 324 325 324 324 323 322 321 320 319 321 323 325 nan nan
302 301 301 302 303 nan nan nan nan nan nan nan nan nan nan nan nan nan nan nan nan nan nan nan nan nan 323 327 326 324 324 324 323 321 319 319 319 320 322 nan nan nan
297 300 302 305 306 304 nan nan nan nan nan nan nan nan nan nan nan nan nan nan nan nan nan nan nan nan nan 325 329 333 326 324 323 322 319 319 319 319 nan nan nan nan
300 300 301 304 302 303 nan nan nan nan nan nan nan nan nan nan nan nan nan nan nan nan nan nan nan nan nan nan nan 333 331 325 322 320 319 318 317 316 317 nan nan 320
299 300 301 301 302 302 nan nan nan nan nan nan nan nan nan nan 325 nan nan nan nan nan nan nan nan nan nan nan nan nan nan 329 323 320 319 319 315 311 310 315 320 320
298 299 299 300 299 298 299 nan nan nan nan nan nan nan 323 326 325 325 325 325 324 323 nan nan nan nan nan nan nan nan nan nan nan nan 315 317 314 308 305 311 317 318
294 296 297 297 296 298 300 304 308 nan nan nan 316 323 327 328 329 330 331 330 329 327 nan nan nan nan nan nan nan nan nan nan nan nan nan nan 314 308 305 308 312 315
292 295 296 296 298 299 302 307 nan nan nan 314 318 323 324 324 326 326 328 327 325 324 326 327 nan nan nan nan nan nan nan nan nan nan nan nan nan 308 305 306 309 312
294 297 298 299 300 301 306 nan 311 314 315 312 315 319 320 323 324 324 324 326 323 321 327 nan nan 322 323 nan nan nan nan nan nan nan nan nan nan 306 304 304 306 308
299 302 303 302 301 307 311 313 306 301 304 306 310 314 320 324 325 324 326 328 325 321 325 330 327 nan nan nan nan nan nan nan nan nan nan 302 303 303 303 303 305 310
305 304 305 305 306 311 311 302 302 311 313 309 309 312 318 321 320 316 313 315 311 307 324 330 324 314 nan nan nan nan nan 319 nan 309 303 301 301 301 nan nan nan nan
304 304 303 305 308 302 299 305 306 305 307 305 305 309 314 312 313 317 322 328 nan nan 324 325 317 306 308 nan nan 320 330 nan nan 307 305 301 299 300 nan nan nan nan